Weather in Nezhnur

Russia / Mari El Republic     56°56′02″N   46°38′41″E
temp.,
°C
wind,
m/s
gust,
m/s
humid.,
%
clouds,
%
prec.,
mm/h
press.,
hPa
HPBL,
m
16 june, wed
wed1600:00+16s1184100 0.0 101111
03:00+15ese228553 0.0 101018
06:00+19ese368924 0.3 1009196
09:00+23se237197 1.1 1007538
12:00+27s135366 0.0 10061320
15:00+26nnw446385 0.4 1005603
18:00+20nnw712860 2.4 1008735
21:00+16n48860 2.4 1011199
17 june, thu
thu1700:00+13nnw34910 0.0 101358
03:00+11nw349372 0.0 101562
06:00+14nw35765 0.0 1016152
09:00+19nw57525 0.0 1017882
12:00+20nnw67462 0.0 10181932
15:00+21nnw69515 0.0 10182381
18:00+19nnw6106041 0.0 1020647
21:00+13nnw48694 0.0 1022121
18 june, fri
fri1800:00+10nnw35750 0.0 102467
03:00+9nnw48790 0.0 1026119
06:00+12n37725 0.0 1027252
09:00+16n46552 0.0 1027784
12:00+19n34455 0.0 10271213
15:00+20n2444100 0.0 10261206
18:00+19ese2262100 0.0 102547
21:00+15s356665 0.0 102675
19 june, sat
sat1900:00+13sw367335 0.0 102686
03:00+13wsw37836 0.0 1025114
06:00+16wsw41085100 0.0 1025259
09:00+23w586429 0.0 1024704
12:00+26w69535 0.0 10231955
15:00+27w69530 0.0 10211425
18:00+25w510630 0.0 1021431
21:00+20wsw410800 0.0 1021206
20 june, sun
sun2000:00+18w411880 0.0 1022193
03:00+16w49950 0.0 1023157
06:00+20wnw48840 0.0 1023233
09:00+25wnw46630 0.0 1023718
12:00+28w45500 0.0 10221834
15:00+29w45520 0.0 10212223
18:00+26wsw47640 0.0 1020218
21:00+21w36745 0.0 102179